Time,TemperatureF,DewpointF,PressureIn,WindDirection,WindDirectionDegrees,WindSpeedMPH,WindSpeedGustMPH,Humidity,HourlyPrecipIn,Conditions,Clouds,dailyrainin,SolarRadiationWatts/m^2,SoftwareType,DateUTC
2013-02-11 00:01:00,17.0,8.0,-100.00,NW,313,22.0,31.0,68,0.00,,,0.00,0.000000,,2013-02-11 05:01:00,
2013-02-11 00:12:00,17.0,8.0,-100.00,NW,313,22.0,31.0,68,0.00,,,0.00,0.000000,,2013-02-11 05:12:00,
2013-02-11 00:22:00,17.0,8.0,-100.00,NW,313,22.0,31.0,68,0.00,,,0.00,0.000000,,2013-02-11 05:22:00,
2013-02-11 00:32:00,17.0,8.0,-100.00,NW,313,22.0,31.0,68,0.00,,,0.00,0.000000,,2013-02-11 05:32:00,
2013-02-11 00:40:00,17.0,9.0,-100.00,NW,312,18.0,34.0,69,0.00,,,0.00,0.000000,,2013-02-11 05:40:00,
2013-02-11 01:02:00,17.0,9.0,-100.00,NW,312,18.0,34.0,69,0.00,,,0.00,0.000000,,2013-02-11 06:02:00,
2013-02-11 01:11:00,17.0,9.0,-100.00,NW,312,18.0,34.0,69,0.00,,,0.00,0.000000,,2013-02-11 06:11:00,
2013-02-11 01:21:00,17.0,9.0,-100.00,NW,312,18.0,34.0,69,0.00,,,0.00,0.000000,,2013-02-11 06:21:00,
2013-02-11 01:32:00,17.0,9.0,-100.00,NW,312,18.0,34.0,69,0.00,,,0.00,0.000000,,2013-02-11 06:32:00,
2013-02-11 01:40:00,17.0,9.0,-100.00,WNW,291,11.0,26.0,70,0.00,,,0.00,0.000000,,2013-02-11 06:40:00,
2013-02-11 02:01:00,17.0,9.0,-100.00,WNW,291,11.0,26.0,70,0.00,,,0.00,0.000000,,2013-02-11 07:01:00,
2013-02-11 02:11:00,17.0,9.0,-100.00,WNW,291,11.0,26.0,70,0.00,,,0.00,0.000000,,2013-02-11 07:11:00,
2013-02-11 02:21:00,17.0,9.0,-100.00,WNW,291,11.0,26.0,70,0.00,,,0.00,0.000000,,2013-02-11 07:21:00,
2013-02-11 02:32:00,17.0,9.0,-100.00,WNW,291,11.0,26.0,70,0.00,,,0.00,0.000000,,2013-02-11 07:32:00,
2013-02-11 02:40:00,17.0,10.0,-100.00,WNW,289,13.0,22.0,72,0.00,,,0.00,0.000000,,2013-02-11 07:40:00,
2013-02-11 03:01:00,17.0,10.0,-100.00,WNW,289,13.0,22.0,72,0.00,,,0.00,0.000000,,2013-02-11 08:01:00,
2013-02-11 03:11:00,17.0,10.0,-100.00,WNW,289,13.0,22.0,72,0.00,,,0.00,0.000000,,2013-02-11 08:11:00,
2013-02-11 03:21:00,17.0,10.0,-100.00,WNW,289,13.0,22.0,72,0.00,,,0.00,0.000000,,2013-02-11 08:21:00,
2013-02-11 03:32:00,17.0,10.0,-100.00,WNW,289,13.0,22.0,72,0.00,,,0.00,0.000000,,2013-02-11 08:32:00,
2013-02-11 03:40:00,17.0,10.0,-100.00,WNW,298,9.0,21.0,72,0.00,,,0.00,0.000000,,2013-02-11 08:40:00,
2013-02-11 04:01:00,17.0,10.0,-100.00,WNW,298,9.0,21.0,72,0.00,,,0.00,0.000000,,2013-02-11 09:01:00,
2013-02-11 04:12:00,17.0,10.0,-100.00,WNW,298,9.0,21.0,72,0.00,,,0.00,0.000000,,2013-02-11 09:12:00,
2013-02-11 04:21:00,17.0,10.0,-100.00,WNW,298,9.0,21.0,72,0.00,,,0.00,0.000000,,2013-02-11 09:21:00,
2013-02-11 04:32:00,17.0,10.0,-100.00,WNW,298,9.0,21.0,72,0.00,,,0.00,0.000000,,2013-02-11 09:32:00,
2013-02-11 04:40:00,17.0,10.0,-100.00,NW,312,12.0,19.0,72,0.00,,,0.00,0.000000,,2013-02-11 09:40:00,
2013-02-11 05:01:00,17.0,10.0,-100.00,NW,312,12.0,19.0,72,0.00,,,0.00,0.000000,,2013-02-11 10:01:00,
2013-02-11 05:11:00,17.0,10.0,-100.00,NW,312,12.0,19.0,72,0.00,,,0.00,0.000000,,2013-02-11 10:11:00,
2013-02-11 05:21:00,17.0,10.0,-100.00,NW,312,12.0,19.0,72,0.00,,,0.00,0.000000,,2013-02-11 10:21:00,
2013-02-11 05:31:00,17.0,10.0,-100.00,NW,312,12.0,19.0,72,0.00,,,0.00,0.000000,,2013-02-11 10:31:00,
2013-02-11 05:40:00,17.0,10.0,-100.00,WNW,303,12.0,23.0,73,0.00,,,0.00,0.000000,,2013-02-11 10:40:00,
2013-02-11 06:02:00,17.0,10.0,-100.00,WNW,303,12.0,23.0,73,0.00,,,0.00,0.000000,,2013-02-11 11:02:00,
2013-02-11 06:11:00,17.0,10.0,-100.00,WNW,303,12.0,23.0,73,0.00,,,0.00,0.000000,,2013-02-11 11:11:00,
2013-02-11 06:22:00,17.0,10.0,-100.00,WNW,303,12.0,23.0,73,0.00,,,0.00,0.000000,,2013-02-11 11:22:00,
2013-02-11 06:32:00,17.0,10.0,-100.00,WNW,303,12.0,23.0,73,0.00,,,0.00,0.000000,,2013-02-11 11:32:00,
2013-02-11 06:40:00,17.0,10.0,-100.00,NW,307,11.0,20.0,73,0.00,,,0.00,0.000000,,2013-02-11 11:40:00,
2013-02-11 07:03:00,17.0,10.0,-100.00,NW,307,11.0,20.0,73,0.00,,,0.00,0.000000,,2013-02-11 12:03:00,
2013-02-11 07:12:00,17.0,10.0,-100.00,NW,307,11.0,20.0,73,0.00,,,0.00,0.000000,,2013-02-11 12:12:00,
2013-02-11 07:22:00,17.0,10.0,-100.00,NW,307,11.0,20.0,73,0.00,,,0.00,0.000000,,2013-02-11 12:22:00,
2013-02-11 07:32:00,17.0,10.0,-100.00,NW,307,11.0,20.0,73,0.00,,,0.00,0.000000,,2013-02-11 12:32:00,
2013-02-11 07:40:00,17.0,10.0,-100.00,WNW,291,10.0,18.0,73,0.00,,,-99.99,0.000000,,2013-02-11 12:40:00,
2013-02-11 08:02:00,17.0,10.0,-100.00,WNW,291,10.0,18.0,73,0.00,,,-99.99,0.000000,,2013-02-11 13:02:00,
2013-02-11 08:12:00,17.0,10.0,-100.00,WNW,291,10.0,18.0,73,0.00,,,-99.99,0.000000,,2013-02-11 13:12:00,
2013-02-11 08:22:00,17.0,10.0,-100.00,WNW,291,10.0,18.0,73,0.00,,,-99.99,0.000000,,2013-02-11 13:22:00,
2013-02-11 08:32:00,17.0,10.0,-100.00,WNW,291,10.0,18.0,73,0.00,,,-99.99,0.000000,,2013-02-11 13:32:00,
2013-02-11 08:40:00,16.0,9.0,-100.00,WNW,289,10.0,17.0,73,0.00,,,-99.99,0.000000,,2013-02-11 13:40:00,
2013-02-11 09:11:00,16.0,9.0,-100.00,WNW,289,10.0,17.0,73,0.00,,,-99.99,0.000000,,2013-02-11 14:11:00,
2013-02-11 09:22:00,16.0,9.0,-100.00,WNW,289,10.0,17.0,73,0.00,,,-99.99,0.000000,,2013-02-11 14:22:00,
2013-02-11 09:33:00,16.0,9.0,-100.00,WNW,289,10.0,17.0,73,0.00,,,-99.99,0.000000,,2013-02-11 14:33:00,
2013-02-11 09:40:00,15.0,8.0,-100.00,West,270,8.0,13.0,72,0.00,,,0.00,7.000000,,2013-02-11 14:40:00,
2013-02-11 10:02:00,15.0,8.0,-100.00,West,270,8.0,13.0,72,0.00,,,0.00,7.000000,,2013-02-11 15:02:00,
2013-02-11 10:11:00,15.0,8.0,-100.00,West,270,8.0,13.0,72,0.00,,,0.00,7.000000,,2013-02-11 15:11:00,
2013-02-11 10:22:00,15.0,8.0,-100.00,West,270,8.0,13.0,72,0.00,,,0.00,7.000000,,2013-02-11 15:22:00,
2013-02-11 10:32:00,15.0,8.0,-100.00,West,270,8.0,13.0,72,0.00,,,0.00,7.000000,,2013-02-11 15:32:00,
2013-02-11 10:40:00,17.0,9.0,-100.00,West,273,11.0,17.0,70,0.00,,,0.00,78.000000,,2013-02-11 15:40:00,
2013-02-11 11:02:00,17.0,9.0,-100.00,West,273,11.0,17.0,70,0.00,,,0.00,78.000000,,2013-02-11 16:02:00,
2013-02-11 11:12:00,17.0,9.0,-100.00,West,273,11.0,17.0,70,0.00,,,0.00,78.000000,,2013-02-11 16:12:00,
2013-02-11 11:22:00,17.0,9.0,-100.00,West,273,11.0,17.0,70,0.00,,,0.00,78.000000,,2013-02-11 16:22:00,
2013-02-11 11:32:00,17.0,9.0,-100.00,West,273,11.0,17.0,70,0.00,,,0.00,78.000000,,2013-02-11 16:32:00,
2013-02-11 11:40:00,21.0,10.0,-100.00,West,265,9.0,15.0,63,0.00,,,0.00,295.000000,,2013-02-11 16:40:00,
2013-02-11 12:02:00,21.0,10.0,-100.00,West,265,9.0,15.0,63,0.00,,,0.00,295.000000,,2013-02-11 17:02:00,
2013-02-11 12:11:00,21.0,10.0,-100.00,West,265,9.0,15.0,63,0.00,,,0.00,295.000000,,2013-02-11 17:11:00,
2013-02-11 12:22:00,21.0,10.0,-100.00,West,265,9.0,15.0,63,0.00,,,0.00,295.000000,,2013-02-11 17:22:00,
2013-02-11 12:32:00,21.0,10.0,-100.00,West,265,9.0,15.0,63,0.00,,,0.00,295.000000,,2013-02-11 17:32:00,
2013-02-11 12:40:00,25.0,12.0,-100.00,West,270,10.0,16.0,58,0.00,,,0.00,457.000000,,2013-02-11 17:40:00,
2013-02-11 13:02:00,25.0,12.0,-100.00,West,270,10.0,16.0,58,0.00,,,0.00,457.000000,,2013-02-11 18:02:00,
2013-02-11 13:11:00,25.0,12.0,-100.00,West,270,10.0,16.0,58,0.00,,,0.00,457.000000,,2013-02-11 18:11:00,
2013-02-11 13:22:00,25.0,12.0,-100.00,West,270,10.0,16.0,58,0.00,,,0.00,457.000000,,2013-02-11 18:22:00,
2013-02-11 13:32:00,25.0,12.0,-100.00,West,270,10.0,16.0,58,0.00,,,0.00,457.000000,,2013-02-11 18:32:00,
2013-02-11 13:40:00,28.0,14.0,-100.00,WSW,254,11.0,18.0,54,0.00,,,0.00,567.000000,,2013-02-11 18:40:00,
2013-02-11 14:02:00,28.0,14.0,-100.00,WSW,254,11.0,18.0,54,0.00,,,0.00,567.000000,,2013-02-11 19:02:00,
2013-02-11 14:11:00,28.0,14.0,-100.00,WSW,254,11.0,18.0,54,0.00,,,0.00,567.000000,,2013-02-11 19:11:00,
2013-02-11 14:21:00,28.0,14.0,-100.00,WSW,254,11.0,18.0,54,0.00,,,0.00,567.000000,,2013-02-11 19:21:00,
2013-02-11 14:32:00,28.0,14.0,-100.00,WSW,254,11.0,18.0,54,0.00,,,0.00,567.000000,,2013-02-11 19:32:00,
2013-02-11 14:40:00,30.0,15.0,-100.00,WSW,251,11.0,19.0,52,0.00,,,0.00,616.000000,,2013-02-11 19:40:00,
2013-02-11 15:01:00,30.0,15.0,-100.00,WSW,251,11.0,19.0,52,0.00,,,0.00,616.000000,,2013-02-11 20:01:00,
2013-02-11 15:11:00,30.0,15.0,-100.00,WSW,251,11.0,19.0,52,0.00,,,0.00,616.000000,,2013-02-11 20:11:00,
2013-02-11 15:21:00,30.0,15.0,-100.00,WSW,251,11.0,19.0,52,0.00,,,0.00,616.000000,,2013-02-11 20:21:00,
2013-02-11 15:32:00,30.0,15.0,-100.00,WSW,251,11.0,19.0,52,0.00,,,0.00,616.000000,,2013-02-11 20:32:00,
2013-02-11 15:40:00,32.0,15.0,-100.00,WSW,251,12.0,19.0,50,0.00,,,0.00,599.000000,,2013-02-11 20:40:00,
2013-02-11 16:02:00,32.0,15.0,-100.00,WSW,251,12.0,19.0,50,0.00,,,0.00,599.000000,,2013-02-11 21:02:00,
2013-02-11 16:12:00,32.0,15.0,-100.00,WSW,251,12.0,19.0,50,0.00,,,0.00,599.000000,,2013-02-11 21:12:00,
2013-02-11 16:22:00,32.0,15.0,-100.00,WSW,251,12.0,19.0,50,0.00,,,0.00,599.000000,,2013-02-11 21:22:00,
2013-02-11 16:32:00,32.0,15.0,-100.00,WSW,251,12.0,19.0,50,0.00,,,0.00,599.000000,,2013-02-11 21:32:00,
2013-02-11 16:40:00,33.0,14.0,-100.00,West,264,13.0,21.0,46,0.00,,,0.00,520.000000,,2013-02-11 21:40:00,
2013-02-11 17:02:00,33.0,14.0,-100.00,West,264,13.0,21.0,46,0.00,,,0.00,520.000000,,2013-02-11 22:02:00,
2013-02-11 17:11:00,33.0,14.0,-100.00,West,264,13.0,21.0,46,0.00,,,0.00,520.000000,,2013-02-11 22:11:00,
2013-02-11 17:22:00,33.0,14.0,-100.00,West,264,13.0,21.0,46,0.00,,,0.00,520.000000,,2013-02-11 22:22:00,
2013-02-11 17:32:00,33.0,14.0,-100.00,West,264,13.0,21.0,46,0.00,,,0.00,520.000000,,2013-02-11 22:32:00,
2013-02-11 17:40:00,32.0,13.0,-100.00,West,266,13.0,21.0,44,0.00,,,0.00,386.000000,,2013-02-11 22:40:00,
2013-02-11 18:02:00,32.0,13.0,-100.00,West,266,13.0,21.0,44,0.00,,,0.00,386.000000,,2013-02-11 23:02:00,
2013-02-11 18:11:00,32.0,13.0,-100.00,West,266,13.0,21.0,44,0.00,,,0.00,386.000000,,2013-02-11 23:11:00,
2013-02-11 18:21:00,32.0,13.0,-100.00,West,266,13.0,21.0,44,0.00,,,0.00,386.000000,,2013-02-11 23:21:00,
2013-02-11 18:32:00,32.0,13.0,-100.00,West,266,13.0,21.0,44,0.00,,,0.00,386.000000,,2013-02-11 23:32:00,
2013-02-11 18:40:00,31.0,13.0,-100.00,West,269,11.0,20.0,46,0.00,,,0.00,164.000000,,2013-02-11 23:40:00,
2013-02-11 19:02:00,31.0,13.0,-100.00,West,269,11.0,20.0,46,0.00,,,0.00,164.000000,,2013-02-12 00:02:00,
2013-02-11 19:11:00,31.0,13.0,-100.00,West,269,11.0,20.0,46,0.00,,,0.00,164.000000,,2013-02-12 00:11:00,
2013-02-11 19:22:00,31.0,13.0,-100.00,West,269,11.0,20.0,46,0.00,,,0.00,164.000000,,2013-02-12 00:22:00,
2013-02-11 19:32:00,31.0,13.0,-100.00,West,269,11.0,20.0,46,0.00,,,0.00,164.000000,,2013-02-12 00:32:00,
2013-02-11 19:40:00,29.0,13.0,-100.00,West,260,7.0,16.0,51,0.00,,,0.00,13.000000,,2013-02-12 00:40:00,
2013-02-11 20:02:00,29.0,13.0,-100.00,West,260,7.0,16.0,51,0.00,,,0.00,13.000000,,2013-02-12 01:02:00,
2013-02-11 20:11:00,29.0,13.0,-100.00,West,260,7.0,16.0,51,0.00,,,0.00,13.000000,,2013-02-12 01:11:00,
2013-02-11 20:22:00,29.0,13.0,-100.00,West,260,7.0,16.0,51,0.00,,,0.00,13.000000,,2013-02-12 01:22:00,
2013-02-11 20:32:00,29.0,13.0,-100.00,West,260,7.0,16.0,51,0.00,,,0.00,13.000000,,2013-02-12 01:32:00,
2013-02-11 20:40:00,28.0,14.0,-100.00,West,260,5.0,10.0,54,0.00,,,0.00,0.000000,,2013-02-12 01:40:00,
2013-02-11 21:02:00,28.0,14.0,-100.00,West,260,5.0,10.0,54,0.00,,,0.00,0.000000,,2013-02-12 02:02:00,
2013-02-11 21:12:00,28.0,14.0,-100.00,West,260,5.0,10.0,54,0.00,,,0.00,0.000000,,2013-02-12 02:12:00,
2013-02-11 21:21:00,28.0,14.0,-100.00,West,260,5.0,10.0,54,0.00,,,0.00,0.000000,,2013-02-12 02:21:00,
2013-02-11 21:32:00,28.0,14.0,-100.00,West,260,5.0,10.0,54,0.00,,,0.00,0.000000,,2013-02-12 02:32:00,
2013-02-11 21:40:00,29.0,13.0,-100.00,WSW,253,7.0,13.0,51,0.00,,,0.00,0.000000,,2013-02-12 02:40:00,
2013-02-11 22:02:00,29.0,13.0,-100.00,WSW,253,7.0,13.0,51,0.00,,,0.00,0.000000,,2013-02-12 03:02:00,
2013-02-11 22:11:00,29.0,13.0,-100.00,WSW,253,7.0,13.0,51,0.00,,,0.00,0.000000,,2013-02-12 03:11:00,
2013-02-11 22:21:00,29.0,13.0,-100.00,WSW,253,7.0,13.0,51,0.00,,,0.00,0.000000,,2013-02-12 03:21:00,
2013-02-11 22:32:00,29.0,13.0,-100.00,WSW,253,7.0,13.0,51,0.00,,,0.00,0.000000,,2013-02-12 03:32:00,
2013-02-11 22:40:00,30.0,14.0,-100.00,West,260,11.0,16.0,50,0.00,,,0.00,0.000000,,2013-02-12 03:40:00,
2013-02-11 23:01:00,30.0,14.0,-100.00,West,260,11.0,16.0,50,0.00,,,0.00,0.000000,,2013-02-12 04:01:00,
2013-02-11 23:11:00,30.0,14.0,-100.00,West,260,11.0,16.0,50,0.00,,,0.00,0.000000,,2013-02-12 04:11:00,
2013-02-11 23:21:00,30.0,14.0,-100.00,West,260,11.0,16.0,50,0.00,,,0.00,0.000000,,2013-02-12 04:21:00,
2013-02-11 23:31:00,30.0,14.0,-100.00,West,260,11.0,16.0,50,0.00,,,0.00,0.000000,,2013-02-12 04:31:00,
2013-02-11 23:40:00,29.0,13.0,-100.00,West,269,11.0,20.0,51,0.00,,,0.00,0.000000,,2013-02-12 04:40:00,